Temperature
2 2 2 2 2 2 2 2 2 2 2 2 2 2 1 1 1 1 1 1 1 1 0 0 0 0 0 -0 -0 -1 -1 -1 -1 -1 -1 -1 -1 -1 -1 -1 -1 -1 -1
1 1 1 1 2 2 1 1 2 2 1 1 1 1 1 1 1 1 0 0 -0 -0 -0 -0 -0 -0 -0 -1 -1 -1 -1 -1 -2 -2 -2 -2 -2 -2 -2 -2 -2 -2 -1
1 1 1 1 1 1 1 1 1 1 1 1 1 1 0 0 -0 -0 -0 -1 -1 -1 -1 -1 -1 -1 -1 -1 -2 -2 -2 -2 -2 -2 -2 -2 -2 -2 -2 -2 -2 -2 -2
0 0 0 0 0 0 0 0 0 0 -0 0 -0 -0 -1 -1 -1 -1 -1 -1 -2 -2 -2 -2 -2 -2 -2 -2 -2 -2 -2 -2 -2 -3 -3 -3 -3 -3 -3 -3 -3 -3 -3
-1 -1 -1 -0 -0 -1 -1 -1 -1 -1 -1 -1 -1 -1 -1 -2 -2 -2 -2 -2 -2 -2 -3 -2 -2 -3 -3 -3 -3 -3 -3 -3 -3 -3 -4 -4 -4 -4 -4 -4 -4 -4 -3
-1 -1 -1 -1 -1 -1 -1 -1 -2 -2 -2 -2 -2 -2 -2 -2 -2 -3 -3 -3 -3 -3 -3 -3 -3 -3 -3 -3 -3 -3 -4 -4 -4 -4 -4 -4 -4 -4 -4 -4 -4 -5 -5
-2 -2 -2 -2 -2 -2 -2 -2 -2 -2 -2 -3 -3 -3 -3 -3 -3 -3 -4 -4 -4 -4 -4 -4 -4 -4 -4 -4 -4 -4 -4 -4 -4 -5 -5 -5 -5 -5 -5 -5 -5 -5 -5
-3 -3 -2 -2 -2 -3 -3 -3 -3 -3 -3 -3 -4 -4 -4 -4 -4 -4 -4 -5 -4 -4 -4 -5 -5 -5 -5 -5 -5 -5 -5 -5 -5 -6 -5 -5 -5 -6 -6 -6 -6 -6 -6
-3 -3 -3 -3 -3 -3 -4 -4 -4 -4 -4 -4 -5 -5 -5 -5 -5 -5 -5 -5 -5 -5 -5 -6 -6 -6 -6 -6 -6 -6 -6 -6 -6 -6 -6 -6 -6 -6 -6 -7 -7 -7 -7
-4 -4 -4 -4 -4 -4 -4 -4 -5 -5 -5 -5 -5 -6 -6 -6 -6 -6 -6 -6 -6 -6 -6 -6 -6 -6 -6 -6 -6 -6 -6 -7 -7 -7 -7 -7 -7 -7 -7 -7 -7 -7 -7
-5 -5 -5 -5 -5 -5 -5 -5 -5 -6 -6 -6 -6 -7 -6 -6 -7 -7 -7 -7 -7 -7 -7 -7 -7 -7 -7 -7 -7 -7 -7 -7 -7 -7 -7 -7 -7 -7 -7 -7 -8 -8 -8
-5 -6 -6 -6 -6 -6 -6 -6 -6 -6 -7 -7 -7 -7 -7 -7 -7 -7 -7 -7 -7 -7 -7 -7 -8 -7 -8 -8 -8 -8 -8 -8 -8 -8 -8 -8 -8 -8 -8 -8 -8 -8 -8
-6 -6 -6 -7 -7 -7 -7 -7 -7 -7 -8 -8 -8 -8 -8 -8 -8 -8 -8 -8 -8 -8 -8 -8 -8 -8 -8 -8 -8 -8 -8 -8 -8 -9 -8 -8 -8 -8 -8 -8 -9 -9 -9
-7 -7 -7 -7 -8 -8 -8 -8 -8 -8 -8 -9 -9 -9 -9 -9 -9 -9 -9 -9 -9 -9 -9 -9 -9 -9 -9 -9 -9 -9 -9 -9 -9 -9 -9 -9 -9 -9 -9 -9 -9 -9 -9
-8 -8 -8 -8 -8 -8 -9 -9 -9 -9 -9 -9 -9 -9 -10 -10 -10 -9 -9 -9 -9 -9 -9 -9 -9 -9 -10 -10 -9 -9 -10 -10 -10 -10 -10 -10 -10 -10 -10 -10 -10 -10 -10
-9 -9 -9 -9 -9 -9 -9 -9 -9 -10 -10 -10 -10 -10 -10 -10 -10 -10 -10 -10 -10 -10 -10 -10 -10 -10 -10 -10 -10 -10 -10 -10 -10 -10 -10 -10 -10 -10 -10 -10 -10 -10 -10
-9 -10 -10 -10 -10 -10 -10 -10 -10 -10 -10 -10 -11 -11 -11 -11 -11 -11 -11 -10 -10 -10 -11 -10 -11 -11 -10 -10 -11 -11 -11 -11 -11 -11 -11 -11 -11 -11 -11 -11 -11 -11 -11
-10 -10 -10 -10 -11 -11 -11 -11 -11 -11 -11 -11 -11 -11 -11 -11 -11 -11 -11 -11 -11 -11 -11 -11 -11 -11 -11 -11 -11 -11 -11 -11 -11 -11 -11 -11 -11 -11 -11 -11 -11 -11 -11
-11 -11 -11 -11 -11 -11 -11 -11 -11 -11 -12 -12 -11 -11 -11 -11 -11 -12 -12 -12 -12 -12 -12 -12 -12 -12 -12 -12 -12 -12 -12 -12 -12 -12 -12 -12 -12 -12 -12 -12 -12 -12 -12
-11 -11 -11 -12 -12 -12 -12 -12 -12 -12 -12 -12 -12 -12 -12 -12 -12 -12 -12 -12 -12 -12 -12 -12 -12 -12 -12 -12 -12 -12 -12 -12 -12 -13 -13 -13 -12 -12 -12 -12 -12 -12 -12
-12 -12 -12 -12 -12 -12 -12 -12 -12 -12 -12 -12 -12 -12 -13 -13 -13 -13 -13 -13 -13 -13 -13 -13 -13 -13 -13 -13 -13 -13 -13 -13 -13 -13 -13 -13 -13 -13 -13 -13 -13 -13 -13
-12 -12 -12 -12 -13 -13 -13 -13 -13 -13 -13 -13 -13 -13 -13 -13 -13 -13 -13 -13 -13 -13 -13 -13 -13 -13 -13 -13 -13 -14 -13 -13 -13 -13 -13 -13 -13 -13 -13 -13 -13 -13 -13
-13 -13 -13 -13 -13 -13 -13 -13 -13 -13 -13 -13 -13 -13 -13 -13 -14 -14 -14 -14 -14 -14 -14 -14 -14 -14 -14 -14 -14 -14 -14 -14 -14 -14 -14 -14 -14 -14 -14 -14 -14 -14 -14
-13 -13 -13 -13 -13 -13 -13 -14 -14 -14 -14 -14 -14 -14 -14 -14 -14 -14 -14 -14 -14 -14 -14 -14 -14 -14 -14 -14 -14 -14 -14 -14 -14 -14 -14 -14 -14 -14 -14 -14 -14 -14 -14
-13 -13 -14 -14 -14 -14 -14 -14 -14 -14 -14 -14 -15 -15 -15 -15 -15 -15 -15 -15 -15 -15 -15 -15 -14 -14 -14 -14 -14 -14 -14 -15 -15 -15 -15 -15 -15 -15 -15 -15 -15 -15 -15
-14 -14 -14 -14 -14 -14 -15 -15 -15 -15 -15 -15 -15 -15 -15 -15 -15 -15 -15 -15 -15 -15 -15 -15 -15 -15 -15 -15 -15 -15 -15 -15 -15 -15 -15 -15 -15 -15 -15 -15 -15 -15 -15
Wind_Speed
4 5 5 5 5 5 5 5 6 6 7 7 7 7 7 7 7 7 6 6 6 5 5 5 4 4 3 3 3 2 2 2 3 3 2 2 3 3 3 4 4 4 4
4 4 4 4 4 5 5 4 5 6 6 7 7 7 7 7 7 7 7 6 6 6 6 5 5 4 4 3 3 3 3 3 3 4 3 3 4 3 4 4 4 4 4
4 4 4 4 5 5 5 4 5 5 5 6 6 6 6 7 7 7 7 7 6 6 6 6 6 5 5 4 4 3 3 2 3 4 4 3 3 3 3 4 4 4 4
3 4 4 4 4 4 4 4 5 5 5 5 5 5 5 6 6 7 7 6 6 5 5 5 5 6 6 5 4 4 3 3 3 3 3 3 3 3 3 3 3 3 4
3 3 3 3 3 4 4 4 4 4 4 5 5 5 5 5 5 6 6 6 6 5 4 4 4 4 5 4 4 4 4 4 4 4 4 3 3 3 3 3 4 4 4
2 2 2 3 3 4 4 4 4 4 4 4 5 5 5 4 6 7 6 5 5 5 5 4 4 4 5 5 6 5 5 5 5 4 4 5 5 4 4 4 4 4 4
2 2 2 2 3 3 4 4 4 4 4 4 4 4 5 5 7 7 7 5 4 5 5 4 3 4 5 4 5 5 5 6 6 5 5 6 5 4 4 5 5 5 5
2 2 2 2 2 3 4 4 4 4 4 4 4 4 4 4 7 7 7 4 4 4 4 5 4 4 4 5 4 4 4 5 5 5 5 5 5 5 5 5 5 6 6
2 1 2 2 2 3 3 3 3 4 3 3 3 3 4 4 6 6 6 3 4 4 4 4 5 4 5 6 5 4 4 4 4 6 6 6 6 6 6 4 4 4 5
1 1 1 2 3 3 2 3 3 3 3 3 2 3 3 3 5 6 5 3 4 3 3 4 5 5 6 6 5 5 5 4 4 3 4 5 5 5 6 5 5 5 4
1 2 2 2 2 2 2 2 3 3 3 3 3 2 2 3 4 5 5 3 4 4 3 3 4 6 6 6 5 4 4 4 4 4 4 3 3 3 4 5 5 5 5
2 2 2 2 2 2 3 2 3 3 4 3 3 2 1 2 2 3 5 5 4 4 3 3 3 5 5 6 5 4 4 4 3 3 3 3 3 3 3 4 5 6 6
3 3 2 3 2 2 2 3 3 3 3 3 3 2 2 1 2 3 4 5 4 3 3 4 4 5 5 4 4 4 4 3 3 3 3 3 3 3 3 3 4 5 6
3 3 3 3 2 2 2 2 2 2 2 2 2 2 2 2 2 2 2 3 3 3 2 3 4 4 3 2 2 2 2 2 3 3 3 3 2 2 3 3 3 3 4
3 3 2 2 2 2 2 1 1 1 2 2 2 2 2 2 3 4 3 3 3 3 2 2 2 2 2 2 2 2 2 2 3 3 3 3 3 3 3 3 3 3 4
2 2 2 2 2 2 2 2 2 1 1 1 1 1 2 3 3 5 5 5 5 6 4 3 3 3 3 3 3 3 3 3 3 3 3 3 3 3 3 3 3 4 5
2 2 2 2 2 1 1 1 1 1 1 0 1 1 2 2 2 3 4 5 5 5 4 3 3 3 3 3 3 3 3 3 3 3 4 4 4 4 4 4 4 4 5
2 2 1 1 1 1 1 1 1 0 0 0 1 1 1 1 2 2 2 2 3 3 3 3 3 3 3 3 3 3 4 3 3 4 4 4 4 4 4 4 4 5 5
1 1 1 1 1 1 1 1 1 0 0 1 0 1 1 1 1 1 1 1 2 2 2 2 2 3 3 3 3 4 4 4 4 4 4 5 4 5 5 5 5 7 6
1 1 1 1 1 1 1 1 0 0 0 1 1 1 1 1 1 1 1 1 2 2 2 3 3 3 3 3 4 4 4 4 5 5 5 5 5 5 6 6 6 6 6
1 1 1 1 0 0 0 0 0 0 1 1 2 2 2 2 2 2 2 2 3 3 3 3 3 4 4 4 4 5 5 5 5 5 5 5 5 5 6 6 6 7 6
0 0 0 0 0 0 0 1 1 1 1 2 2 2 3 2 2 2 2 3 3 3 3 4 4 4 4 5 5 5 6 6 6 5 5 5 6 6 6 6 6 6 6
1 1 0 0 0 1 1 1 1 1 2 2 2 2 2 2 3 3 3 3 3 4 4 5 5 5 6 6 7 7 7 7 7 6 6 6 6 6 7 7 8 7 7
1 1 1 1 1 1 1 1 2 2 2 2 2 3 3 3 3 4 4 4 4 5 5 6 6 7 9 8 8 9 10 11 10 9 10 9 8 7 7 7 8 8 8
1 1 1 1 1 2 2 2 2 2 3 3 3 3 3 4 4 4 5 5 5 6 7 7 7 8 10 11 11 11 13 14 14 13 12 10 10 10 9 9 8 8 8
1 1 1 1 2 2 2 2 3 3 3 3 4 4 4 4 5 5 5 5 5 6 7 7 9 10 11 11 12 14 15 16 16 16 13 10 10 9 9 8 9 9 9
Wind_Direction
184 181 179 178 173 169 175 179 178 177 175 178 179 180 182 181 180 182 187 183 183 184 183 183 186 182 182 187 191 205 218 225 238 259 263 252 267 279 292 297 301 302 312
184 179 178 170 165 168 173 177 175 177 178 178 178 179 181 182 183 185 186 186 187 188 188 187 188 182 187 191 194 202 213 227 233 244 258 256 262 274 285 292 296 297 298
181 176 173 172 172 175 175 173 172 174 174 171 173 179 182 184 184 187 188 190 194 195 192 192 193 188 191 195 196 202 208 215 223 227 244 256 262 266 282 292 292 290 292
170 174 175 177 177 176 170 169 171 172 173 172 174 178 181 184 185 186 185 186 190 194 195 195 197 198 198 196 200 203 201 203 205 213 229 244 255 265 276 287 297 296 293
166 170 179 173 167 163 160 166 165 168 174 172 170 175 179 184 186 184 183 183 182 185 190 195 198 201 208 208 208 203 199 202 204 211 224 236 245 255 265 278 287 297 294
157 165 161 156 156 158 161 160 159 163 167 170 175 176 181 186 184 186 183 181 179 184 189 191 192 196 201 210 215 216 213 207 207 215 229 235 244 253 264 270 278 287 287
141 143 147 148 157 156 153 156 161 164 164 169 173 179 187 186 186 186 185 185 183 188 193 194 195 197 203 200 203 211 221 226 228 230 234 240 247 250 256 262 266 273 281
135 136 138 139 145 154 156 160 163 163 168 171 177 184 186 187 189 188 185 189 186 189 196 198 197 202 205 201 201 211 222 226 227 231 238 248 252 250 246 256 268 275 282
130 136 149 148 144 150 164 168 168 166 164 168 176 180 184 190 192 193 187 182 185 191 196 199 201 207 207 206 207 212 221 231 231 235 245 251 254 248 246 251 257 263 275
109 127 144 146 151 156 157 161 159 158 157 158 170 183 190 199 197 195 188 189 190 192 192 199 206 210 212 216 217 215 222 230 226 228 237 241 244 246 243 242 247 252 266
88 100 110 121 132 135 131 136 144 149 150 158 167 177 187 189 191 195 197 195 197 197 199 205 207 207 217 224 228 225 230 234 226 230 237 238 238 240 240 242 248 253 256
97 105 106 106 110 123 130 130 137 148 153 159 164 172 180 191 200 199 201 206 205 202 205 207 204 208 224 228 224 226 228 222 227 231 238 247 250 250 254 253 253 256 259
100 104 103 99 99 118 134 136 139 149 162 167 171 179 186 197 206 206 208 205 205 209 207 202 204 212 221 225 221 227 225 221 226 239 247 252 257 262 263 263 263 262 266
99 101 105 109 106 107 121 136 144 156 165 173 181 189 196 202 210 212 210 200 203 204 202 195 203 209 213 215 215 223 224 229 234 243 254 262 265 262 263 268 272 274 273
98 97 99 99 101 103 107 119 144 173 176 181 202 204 205 214 219 219 212 212 208 202 186 195 206 214 221 221 217 222 223 223 231 241 248 254 260 263 266 267 266 269 262
107 102 102 100 102 109 110 96 86 101 79 205 220 219 223 235 232 228 225 221 213 195 196 208 214 218 222 225 226 227 229 233 237 240 245 248 253 258 265 263 258 257 264
117 114 112 110 112 118 122 120 97 71 62 18 280 240 230 244 253 238 236 230 215 204 211 215 218 219 220 223 229 235 239 242 242 241 244 247 250 254 258 261 258 258 264
113 115 117 119 115 116 122 125 133 155 255 315 304 288 292 286 284 266 244 227 222 213 221 223 221 223 225 228 234 241 245 245 242 244 245 246 246 249 253 258 259 258 264
117 121 115 110 109 109 106 102 92 111 260 282 305 307 307 301 295 301 281 236 222 224 231 233 233 236 239 240 243 244 244 244 246 245 247 248 247 248 253 256 261 263 262
119 114 111 115 117 117 119 119 116 36 296 290 288 306 324 312 280 278 270 248 239 240 240 242 243 246 247 246 246 246 247 248 245 245 248 248 247 247 251 255 258 262 260
115 114 103 108 121 139 157 202 247 265 280 297 296 289 292 288 273 265 260 254 250 250 249 249 249 248 248 248 247 246 248 250 250 250 249 248 246 247 251 253 255 257 261
141 141 137 167 178 204 243 251 255 263 273 284 299 304 296 284 271 265 261 260 261 260 257 254 253 251 247 247 247 248 248 250 251 250 253 252 248 248 249 250 252 254 256
155 157 159 205 241 255 274 262 260 264 272 280 286 292 292 278 272 270 270 271 270 267 263 258 257 256 256 253 250 246 246 248 249 250 251 254 254 252 248 247 248 253 254
178 194 215 245 264 267 270 270 270 271 274 277 279 278 278 279 277 275 274 275 273 270 266 261 258 259 260 260 257 252 250 250 250 247 245 247 250 253 251 249 251 252 253
205 227 243 257 265 267 268 269 270 273 274 273 275 276 277 277 278 278 276 272 271 267 266 265 262 261 260 259 258 258 257 256 254 249 243 242 246 247 247 248 250 253 251
220 242 257 261 261 263 265 269 271 274 274 276 277 278 279 278 277 277 277 273 271 269 269 268 264 264 266 267 265 263 263 261 258 255 249 247 246 245 243 243 246 246 250
Height
1470 1471 1474 1476 1478 1479 1481 1483 1485 1487 1489 1491 1493 1495 1496 1498 1500 1501 1503 1504 1506 1507 1509 1511 1512 1514 1515 1516 1517 1518 1519 1520 1520 1519 1520 1520 1520 1520 1519 1519 1518 1517 1516
1467 1469 1470 1472 1474 1476 1477 1479 1481 1483 1485 1487 1489 1491 1492 1494 1496 1497 1499 1500 1502 1504 1505 1507 1508 1510 1511 1512 1514 1515 1516 1517 1517 1516 1516 1517 1517 1517 1516 1516 1515 1514 1513
1464 1466 1467 1469 1470 1472 1474 1476 1477 1479 1481 1483 1485 1486 1488 1490 1492 1493 1495 1497 1498 1500 1502 1503 1505 1506 1507 1509 1510 1511 1512 1513 1513 1513 1512 1513 1513 1513 1513 1512 1512 1511 1510
1461 1463 1464 1466 1467 1469 1471 1472 1474 1475 1477 1479 1480 1482 1484 1486 1488 1489 1491 1492 1494 1496 1498 1499 1501 1502 1503 1505 1506 1507 1508 1509 1509 1509 1509 1509 1510 1510 1509 1509 1508 1507 1506
1458 1459 1461 1463 1464 1466 1467 1469 1471 1472 1474 1475 1477 1479 1480 1482 1484 1485 1487 1489 1490 1492 1494 1495 1497 1498 1499 1500 1502 1503 1504 1504 1505 1505 1505 1506 1506 1506 1506 1505 1504 1503 1503
1455 1457 1458 1460 1461 1463 1464 1466 1468 1469 1471 1472 1474 1475 1477 1478 1480 1482 1483 1485 1486 1488 1490 1491 1493 1494 1495 1496 1498 1499 1500 1501 1501 1501 1502 1502 1502 1502 1502 1501 1500 1500 1499
1453 1454 1456 1457 1458 1460 1461 1463 1464 1466 1467 1469 1470 1472 1473 1475 1477 1478 1480 1481 1483 1485 1486 1487 1489 1490 1492 1493 1493 1494 1495 1496 1497 1498 1498 1498 1498 1498 1498 1498 1497 1496 1495
1451 1452 1453 1454 1456 1457 1459 1460 1461 1463 1464 1465 1467 1469 1470 1472 1474 1475 1477 1478 1480 1481 1483 1484 1485 1487 1488 1489 1490 1491 1491 1492 1493 1493 1494 1494 1494 1495 1494 1494 1493 1492 1491
1449 1450 1451 1452 1453 1454 1456 1457 1458 1460 1461 1462 1464 1465 1467 1469 1470 1472 1474 1475 1476 1478 1479 1481 1482 1483 1484 1485 1486 1487 1487 1487 1488 1489 1489 1490 1490 1490 1490 1490 1489 1488 1487
1448 1448 1449 1450 1451 1452 1453 1454 1455 1456 1458 1459 1461 1463 1464 1465 1467 1469 1471 1472 1473 1475 1476 1477 1479 1480 1481 1482 1482 1483 1483 1483 1484 1485 1485 1485 1485 1485 1485 1485 1485 1484 1483
1446 1447 1447 1448 1449 1450 1451 1452 1453 1454 1456 1457 1459 1460 1461 1462 1464 1466 1467 1469 1470 1471 1472 1473 1474 1476 1477 1478 1479 1479 1479 1480 1480 1481 1481 1481 1481 1480 1480 1480 1480 1480 1479
1445 1445 1446 1447 1448 1449 1449 1450 1451 1452 1453 1455 1456 1457 1458 1460 1461 1462 1464 1466 1467 1468 1469 1470 1471 1472 1473 1474 1474 1475 1475 1476 1476 1477 1477 1476 1476 1476 1476 1476 1476 1475 1475
1444 1444 1445 1445 1446 1447 1448 1448 1449 1450 1451 1452 1453 1454 1456 1457 1458 1459 1461 1462 1464 1465 1465 1466 1467 1468 1469 1469 1470 1471 1472 1472 1472 1472 1472 1472 1472 1472 1472 1471 1471 1471 1470
1442 1443 1443 1444 1445 1445 1446 1447 1447 1448 1449 1450 1451 1452 1453 1454 1455 1456 1458 1459 1460 1461 1462 1463 1464 1464 1465 1465 1466 1467 1467 1468 1468 1468 1468 1468 1468 1468 1467 1467 1467 1466 1465
1441 1441 1442 1443 1443 1444 1445 1445 1446 1447 1448 1449 1450 1450 1451 1452 1453 1454 1455 1456 1457 1458 1459 1459 1460 1461 1461 1461 1462 1463 1463 1464 1464 1464 1464 1464 1464 1464 1463 1463 1462 1462 1461
1440 1440 1441 1441 1442 1443 1443 1444 1445 1446 1446 1447 1448 1448 1449 1450 1450 1451 1452 1453 1454 1455 1456 1456 1456 1457 1457 1458 1458 1459 1459 1460 1460 1460 1460 1460 1460 1459 1459 1459 1458 1458 1457
1439 1440 1440 1441 1441 1442 1442 1442 1443 1444 1445 1445 1446 1446 1446 1447 1447 1448 1449 1450 1450 1451 1452 1452 1453 1453 1453 1454 1454 1455 1455 1455 1456 1455 1455 1455 1455 1455 1455 1454 1454 1453 1452
1439 1439 1439 1440 1440 1441 1441 1441 1442 1442 1442 1443 1444 1444 1444 1444 1445 1445 1446 1447 1447 1447 1448 1448 1449 1449 1449 1450 1450 1450 1451 1451 1451 1451 1451 1451 1451 1451 1450 1450 1449 1449 1448
1438 1438 1439 1439 1439 1440 1440 1440 1440 1441 1441 1441 1441 1441 1442 1442 1442 1442 1443 1443 1443 1444 1444 1444 1445 1445 1446 1446 1446 1446 1446 1446 1446 1446 1446 1446 1446 1446 1445 1445 1445 1444 1443
1437 1438 1438 1438 1438 1439 1439 1439 1439 1439 1439 1439 1439 1439 1439 1439 1439 1439 1439 1439 1440 1440 1440 1440 1440 1441 1441 1441 1441 1441 1441 1441 1441 1441 1441 1441 1441 1441 1441 1440 1440 1439 1438
1436 1437 1437 1437 1437 1438 1438 1438 1438 1438 1437 1437 1437 1437 1437 1437 1436 1436 1436 1436 1436 1436 1436 1436 1436 1436 1436 1436 1436 1436 1436 1436 1436 1436 1436 1436 1436 1435 1435 1435 1434 1434 1433
1435 1436 1436 1436 1436 1436 1436 1436 1436 1436 1436 1435 1435 1434 1434 1434 1433 1433 1432 1432 1432 1432 1432 1431 1431 1431 1431 1431 1431 1431 1431 1431 1431 1431 1430 1430 1430 1430 1429 1429 1429 1428 1428
1434 1435 1435 1435 1435 1435 1435 1434 1434 1434 1433 1432 1432 1431 1431 1430 1430 1429 1429 1428 1428 1427 1427 1427 1426 1426 1426 1426 1426 1425 1425 1425 1425 1425 1425 1424 1424 1424 1423 1423 1423 1423 1422
1433 1433 1433 1433 1433 1433 1432 1432 1431 1431 1430 1429 1429 1428 1427 1427 1426 1425 1425 1424 1423 1423 1422 1422 1421 1421 1421 1420 1420 1419 1419 1419 1418 1418 1418 1418 1418 1418 1417 1417 1417 1417 1417
1432 1432 1431 1431 1431 1430 1430 1429 1429 1428 1427 1426 1425 1424 1424 1423 1422 1421 1420 1420 1419 1418 1417 1417 1416 1416 1415 1415 1414 1413 1413 1412 1412 1412 1412 1412 1411 1411 1411 1411 1411 1411 1411
1430 1430 1429 1429 1428 1428 1427 1426 1426 1425 1424 1423 1422 1421 1420 1419 1418 1416 1416 1415 1414 1413 1412 1411 1411 1410 1409 1408 1408 1407 1406 1405 1405 1405 1405 1405 1405 1405 1405 1405 1405 1405 1405